Location: Bu�n Treun
(12.1333°N, 108.3167°E)
Time: 20:08:25
(UTC+00:00)

BEESAT - Pass Details

Date: 03 October 2021
Orbit: 699 x 709 km, 98.6° (Epoch: 17 October)

Event Time Altitude Azimuth Distance (km) Brightness Sun altitude
Rises 12:55:15 0° 348° (NNW) 3,072 ? -35.0°
Reaches altitude 10° 12:58:00 10° 332° (NNW) 2,155 ? -35.6°
Maximum altitude 13:01:24 20° 285° (WNW) 1,583 ? -36.5°
Drops below altitude 10° 13:04:50 10° 239° (WSW) 2,158 ? -37.3°
Sets 13:07:36 0° 222° (SW) 3,077 ? -38.0°
